Location: Unspecified
(38.9820°N, 94.4650°W)
Time: 05:01:49
(UTC-05:00)

ISS - Visible Passes

Search period start: 23 October 2019 00:00
Search period end: 02 November 2019 00:00
Orbit: 411 x 421 km, 51.6° (Epoch: 23 October)

Date Brightness Start Highest point End Pass type
(mag) Time Alt. Az. Time Alt. Az. Time Alt. Az.
23 Oct -1.9 06:45:16 10° SSW 06:48:19 32° SE 06:51:22 10° ENE visible
24 Oct -1.1 05:57:30 10° S 05:59:54 18° SE 06:02:18 10° E visible
25 Oct -0.5 05:11:25 10° SE 05:11:33 10° SE 05:11:48 10° ESE visible
25 Oct -3.8 06:44:27 10° SW 06:47:48 80° NW 06:51:10 10° NE visible
26 Oct -3.2 05:58:36 45° S 05:59:16 55° SE 06:02:34 10° ENE visible
27 Oct -0.9 05:12:37 18° E 05:12:37 18° E 05:13:45 10° ENE visible
27 Oct -2.8 06:45:33 18° W 06:47:28 31° NNW 06:50:31 10° NE visible
28 Oct -3.0 05:59:23 43° N 05:59:23 43° N 06:02:04 10° NE visible
29 Oct -0.6 05:13:05 13° NE 05:13:05 13° NE 05:13:32 10° NE visible
29 Oct -1.8 06:46:00 14° NW 06:47:18 17° NNW 06:49:35 10° NNE visible
30 Oct -1.7 05:59:35 19° N 05:59:35 19° N 06:01:14 10° NNE visible
31 Oct -1.3 06:46:03 10° NNW 06:47:15 11° NNW 06:48:26 10° N visible
01 Nov -1.1 05:59:25 12° N 05:59:25 12° N 06:00:10 10° NNE visible
